Location: Chochol
(49.7771°N, 14.9780°E)
Time: 04:37:48
(UTC+00:00)

Envisat - Visible Passes

Search period start: 26 February 2021 00:00
Search period end: 08 March 2021 00:00
Orbit: 764 x 766 km, 98.1° (Epoch: 25 February)

Date Brightness Start Highest point End Pass type
(mag) Time Alt. Az. Time Alt. Az. Time Alt. Az.
26 Feb 6.3 03:08:47 10° ENE 03:10:07 11° E 03:11:28 10° E visible
26 Feb 3.3 04:44:57 10° NNE 04:50:03 73° ESE 04:55:08 10° S visible
27 Feb 4.7 04:08:23 10° NNE 04:13:05 36° E 04:17:45 10° SSE visible
27 Feb 6.1 17:08:21 10° SW 17:11:44 18° W 17:15:08 10° NW visible
28 Feb 5.8 03:32:23 10° NE 03:35:54 18° E 03:39:24 10° SE visible
28 Feb 3.0 05:10:22 10° N 05:15:27 70° WNW 05:20:30 10° SSW visible
01 Mar 3.7 04:33:34 10° NNE 04:38:37 59° E 04:43:37 10° S visible
01 Mar 6.8 17:36:42 10° W 17:37:32 10° W 17:38:21 10° WNW visible
02 Mar 5.1 03:57:07 10° NNE 04:01:34 30° E 04:05:59 10° SSE visible
03 Mar 6.0 03:21:27 10° NE 03:24:19 15° E 03:27:11 10° ESE visible
03 Mar 3.0 04:58:55 10° NNE 05:04:02 85° WNW 05:09:07 10° SSW visible
04 Mar 4.1 04:22:12 10° NNE 04:27:08 48° E 04:32:02 10° S visible
04 Mar 6.5 17:23:32 10° WSW 17:25:55 13° W 17:28:18 10° WNW visible
05 Mar 5.4 03:45:55 10° NE 03:50:02 24° E 03:54:08 10° SE visible
06 Mar 6.2 03:10:50 10° ENE 03:12:43 12° E 03:14:37 10° ESE visible
06 Mar 3.2 04:47:29 10° NNE 04:52:37 79° ESE 04:57:41 10° S visible
07 Mar 4.6 04:10:52 10° NNE 04:15:39 39° E 04:20:23 10° SSE visible
